HJ3GNC-10 Weather Reports


time (UTC)temp
C
wind
direction
speed
KPH
gust
KPH
rain 1hr
cm
rain 24hr
cm
rain mn
cm
humidity
%
barometer
mb
20260507115022 10 0 0.0 0.0 0.00 0.00 0.00 97 1020.0
20260507113437 10 0 0.0 0.0 0.00 0.00 0.00 97 1020.0
20260507111847 10 0 0.0 0.0 0.00 0.00 0.00 96 1020.0
20260507110300 10 70 0.0 0.0 0.00 0.00 0.00 95 1020.0
20260507104719 10 70 0.0 0.0 0.00 0.00 0.00 94 1020.0
20260507103138 10 80 0.0 0.0 0.00 0.00 0.00 93 1020.0
20260507101558 10 80 0.0 0.0 0.00 0.00 0.00 92 1020.0
20260507100018 10 97 0.0 0.0 0.00 0.00 0.00 90 1020.0
20260507094434 10 97 0.0 0.0 0.00 0.00 0.00 90 1020.0
20260507092852 10 96 0.0 0.0 0.00 0.00 0.00 90 1020.0
20260507091306 10 0 0.0 0.0 0.00 0.00 0.00 90 1020.0
20260507085721 11 350 0.0 0.0 0.00 0.00 0.00 90 1020.0
20260507082554 11 350 0.0 0.0 0.00 0.00 0.00 90 1020.0
20260507081008 11 350 0.0 0.0 0.00 0.00 0.00 90 1020.0
20260507075427 11 0 0.0 0.0 0.00 0.00 0.00 90 1020.0
20260507073840 11 0 0.0 0.0 0.00 0.00 0.00 90 1020.0
20260507072258 11 0 0.0 0.0 0.00 0.00 0.00 90 1020.0
20260507070708 11 0 0.0 0.0 0.00 0.00 0.00 90 1020.0
20260507065123 11 60 0.0 0.0 0.00 0.00 0.00 90 1020.0
20260507063539 11 60 0.0 0.0 0.00 0.00 0.00 90 1020.0
20260507061956 11 60 0.0 0.0 0.00 0.00 0.00 89 1021.0
20260507060413 11 40 0.0 0.0 0.00 0.00 0.00 88 1020.0
20260507054833 11 40 0.0 0.0 0.00 0.00 0.00 87 1020.0
20260507053251 11 40 0.0 0.0 0.00 0.00 0.00 86 1021.0
20260507051707 11 40 0.0 0.0 0.00 0.00 0.00 85 1021.0
20260507050114 11 20 0.0 0.0 0.00 0.00 0.00 83 1021.0
20260507044527 11 20 0.0 0.0 0.00 0.00 0.00 81 1021.0
20260507042940 11 20 0.0 0.0 0.00 0.00 0.00 79 1022.0
20260507041357 11 20 0.0 0.0 0.00 0.00 0.00 75 1022.0
20260507035811 12 70 0.0 0.0 0.00 0.00 0.00 71 1022.0
20260507034224 12 70 0.0 0.0 0.00 0.00 0.00 71 1022.0
20260507032638 12 70 0.0 0.0 0.00 0.00 0.00 71 1022.0
20260507031048 12 70 0.0 0.0 0.00 0.00 0.00 71 1021.0
20260507025452 15 110 0.0 0.0 0.00 0.00 0.00 58 1021.0
20260507023906 15 110 0.0 0.0 0.00 0.00 0.00 58 1021.0
20260507022323 15 110 0.0 0.0 0.00 0.00 0.00 58 1021.0
20260507015149 15 130 0.0 0.0 0.00 0.00 0.00 63 1021.0
20260507013605 15 130 0.0 0.0 0.00 0.00 0.00 63 1021.0
20260507012022 15 130 0.0 0.0 0.00 0.00 0.00 63 1020.0
20260507010432 17 120 0.0 0.0 0.00 0.00 0.00 51 1020.0
20260507004846 17 120 0.0 0.0 0.00 0.00 0.00 51 1020.0
20260507003302 17 120 0.0 0.0 0.00 0.00 0.00 51 1019.0
20260507001719 17 120 0.0 0.0 0.00 0.00 0.00 51 1018.0
20260507000131 17 130 0.0 0.0 0.00 0.00 0.00 48 1018.0
20260506234542 15 130 0.0 0.0 0.00 0.00 0.00 85 1017.0
20260506232957 15 141 0.0 0.0 0.00 0.00 0.00 85 1016.0
20260506231358 15 141 0.0 0.0 0.00 0.00 0.00 85 1016.0
20260506225806 15 141 0.0 0.0 0.00 0.00 0.00 85 1016.0
20260506224216 15 141 0.0 0.0 0.00 0.00 0.00 85 1015.0
20260506222622 15 159 0.0 0.0 0.00 0.00 0.00 85 1014.0
20260506221038 15 159 0.0 0.0 0.00 0.00 0.00 85 1014.0
20260506215432 15 159 0.0 0.0 0.00 0.00 0.00 85 1014.0
20260506212139 15 166 0.0 0.0 0.00 0.00 0.00 85 1014.0
20260506210544 15 166 0.0 0.0 0.00 0.00 0.00 85 1014.0
20260506204955 15 166 0.0 0.0 0.00 0.00 0.00 85 1014.0
20260506203410 15 166 0.0 0.0 0.00 0.00 0.00 85 1014.0
20260506201815 15 165 0.0 0.0 0.00 0.00 0.00 85 1014.0
20260506200224 15 165 0.0 0.0 0.00 0.00 0.00 85 1014.0
20260506194641 15 165 0.0 0.0 0.00 0.00 0.00 85 1014.0
20260506193055 15 165 0.0 0.0 0.00 0.00 0.00 85 1014.0
20260506191448 15 155 0.0 0.0 0.00 0.00 0.00 84 1015.0
20260506185901 15 155 0.0 0.0 0.00 0.00 0.00 83 1015.0
20260506184313 13 155 0.0 0.0 0.00 0.00 0.00 92 1016.0
20260506181120 13 132 0.0 0.0 0.00 0.00 0.00 92 1017.0
20260506175529 13 132 0.0 0.0 0.00 0.00 0.00 92 1017.0
20260506173941 13 130 0.0 0.0 0.00 0.00 0.00 92 1017.0
20260506172357 13 93 0.0 0.0 0.00 0.00 0.00 92 1018.0
20260506170812 13 93 6.4 6.4 0.00 0.00 0.00 92 1018.0
20260506165229 13 93 0.0 0.0 0.00 0.00 0.00 92 1018.0
20260506163617 13 93 6.4 6.4 0.00 0.00 0.00 92 1018.0
20260506162027 13 91 0.0 0.0 0.00 0.00 0.00 92 1019.0
20260506160438 13 91 0.0 0.0 0.00 0.00 0.00 92 1019.0
20260506154844 13 91 0.0 0.0 0.00 0.00 0.00 92 1019.0
20260506153251 13 91 0.0 0.0 0.00 0.00 0.00 92 1019.0
20260506151613 13 83 0.0 0.0 0.00 0.00 0.00 92 1019.0
20260506150012 13 90 0.0 0.0 0.00 0.00 0.00 93 1019.0
20260506144428 13 90 0.0 0.0 0.00 0.00 0.00 94 1019.0
20260506142839 13 90 0.0 0.0 0.00 0.00 0.00 95 1019.0
20260506141249 13 90 0.0 0.0 0.00 0.00 0.00 97 1019.0
20260506135657 13 70 0.0 0.0 0.00 0.00 0.00 99 1019.0
20260506134113 12 70 0.0 0.0 0.00 0.00 0.00 98 1019.0
20260506132526 12 70 0.0 0.0 0.00 0.00 0.00 98 1019.0
20260506130941 12 0 0.0 0.0 0.00 0.00 0.00 98 1019.0
20260506125354 12 0 0.0 0.0 0.00 0.00 0.00 98 1019.0
20260506122215 12 40 0.0 0.0 0.00 0.00 0.00 98 1020.0
20260506120626 12 60 0.0 0.0 0.00 0.00 0.00 98 1020.0